Location: Ay?beleni
(36.6500°N, 30.3000°E)
Time: 04:29:41
(UTC+00:00)

GPS 2-04 Rocket1 - Pass Details

Date: 16 October 2021
Orbit: 412 x 536 km, 35.6° (Epoch: 08 December)

Event Time Altitude Azimuth Distance (km) Brightness Sun altitude
Rises 16:32:55 0° 276° (W) 2,539 8.1 -15.2°
Reaches altitude 10° 16:35:12 10° 270° (W) 1,635 6.6 -15.6°
Maximum altitude 16:38:49 48° 195° (SSW) 603 3.1 -16.4°
Enters shadow 16:40:16 29° 138° (SE) 854 3.4 -16.6°
